| time (UTC) | temp F | wind direction | speed MPH | gust MPH | rain 1hr in | rain 24hr in | rain mn in | humidity % | barometer mb |
| 20260510154545 | 83 | 130 | 9.0 | 15.0 | 0.00 | 0.00 | 0.00 | 71 | 1011.4 |
| 20260510154035 | 83 | 157 | 7.0 | 14.0 | 0.00 | 0.00 | 0.00 | 71 | 1011.4 |
| 20260510153534 | 83 | 153 | 7.0 | 12.0 | 0.00 | 0.00 | 0.00 | 72 | 1011.4 |
| 20260510153045 | 82 | 151 | 7.0 | 14.0 | 0.00 | 0.00 | 0.00 | 73 | 1011.4 |
| 20260510152535 | 82 | 165 | 8.0 | 14.0 | 0.00 | 0.00 | 0.00 | 72 | 1011.5 |
| 20260510152034 | 82 | 178 | 8.0 | 12.0 | 0.00 | 0.00 | 0.00 | 73 | 1011.4 |
| 20260510151544 | 82 | 105 | 7.0 | 13.0 | 0.00 | 0.00 | 0.00 | 74 | 1011.3 |
| 20260510151034 | 81 | 140 | 8.0 | 13.0 | 0.00 | 0.00 | 0.00 | 74 | 1011.3 |
| 20260510150534 | 81 | 144 | 7.0 | 13.0 | 0.00 | 0.00 | 0.00 | 74 | 1011.1 |
| 20260510150051 | 81 | 175 | 6.0 | 11.0 | 0.00 | 0.00 | 0.00 | 74 | 1011.2 |
| 20260510145538 | 81 | 148 | 4.0 | 11.0 | 0.00 | 0.00 | 0.00 | 76 | 1011.2 |
| 20260510145035 | 80 | 164 | 6.0 | 12.0 | 0.00 | 0.00 | 0.00 | 76 | 1011.4 |
| 20260510144557 | 79 | 132 | 6.0 | 12.0 | 0.00 | 0.00 | 0.00 | 76 | 1011.4 |
| 20260510144036 | 79 | 137 | 6.0 | 12.0 | 0.00 | 0.00 | 0.00 | 76 | 1011.4 |
| 20260510143535 | 79 | 159 | 5.0 | 11.0 | 0.00 | 0.00 | 0.00 | 77 | 1011.5 |
| 20260510143104 | 79 | 123 | 4.0 | 14.0 | 0.00 | 0.00 | 0.00 | 78 | 1011.5 |
| 20260510142535 | 78 | 151 | 7.0 | 14.0 | 0.00 | 0.00 | 0.00 | 78 | 1011.6 |
| 20260510142035 | 78 | 159 | 7.0 | 12.0 | 0.00 | 0.00 | 0.00 | 78 | 1011.6 |
| 20260510141550 | 77 | 139 | 8.0 | 12.0 | 0.00 | 0.00 | 0.00 | 78 | 1011.5 |
| 20260510141035 | 77 | 119 | 6.0 | 12.0 | 0.00 | 0.00 | 0.00 | 79 | 1011.5 |
| 20260510140534 | 77 | 138 | 6.0 | 12.0 | 0.00 | 0.00 | 0.00 | 79 | 1011.5 |
| 20260510140048 | 76 | 169 | 6.0 | 12.0 | 0.00 | 0.00 | 0.00 | 80 | 1011.6 |
| 20260510135536 | 76 | 121 | 6.0 | 12.0 | 0.00 | 0.00 | 0.00 | 81 | 1011.6 |
| 20260510135035 | 75 | 128 | 6.0 | 11.0 | 0.00 | 0.00 | 0.00 | 81 | 1011.5 |
| 20260510134604 | 75 | 132 | 5.0 | 13.0 | 0.00 | 0.00 | 0.00 | 81 | 1011.6 |
| 20260510134036 | 75 | 114 | 6.0 | 13.0 | 0.00 | 0.00 | 0.00 | 81 | 1011.5 |
| 20260510133534 | 74 | 121 | 7.0 | 13.0 | 0.00 | 0.00 | 0.00 | 82 | 1011.5 |
| 20260510133050 | 74 | 123 | 6.0 | 9.0 | 0.00 | 0.00 | 0.00 | 82 | 1011.4 |
| 20260510132535 | 74 | 92 | 5.0 | 9.0 | 0.00 | 0.00 | 0.00 | 83 | 1011.4 |
| 20260510132035 | 73 | 115 | 3.0 | 9.0 | 0.00 | 0.00 | 0.00 | 83 | 1011.4 |
| 20260510131545 | 73 | 122 | 4.0 | 10.0 | 0.00 | 0.00 | 0.00 | 84 | 1011.3 |
| 20260510131039 | 73 | 113 | 6.0 | 10.0 | 0.00 | 0.00 | 0.00 | 84 | 1011.2 |
| 20260510130535 | 72 | 135 | 5.0 | 9.0 | 0.00 | 0.00 | 0.00 | 84 | 1011.1 |
| 20260510130047 | 72 | 117 | 4.0 | 10.0 | 0.00 | 0.00 | 0.00 | 84 | 1011.1 |
| 20260510125534 | 71 | 112 | 4.0 | 10.0 | 0.00 | 0.00 | 0.00 | 85 | 1011.1 |
| 20260510125035 | 71 | 133 | 5.0 | 10.0 | 0.00 | 0.00 | 0.00 | 85 | 1011.1 |
| 20260510124553 | 71 | 135 | 4.0 | 9.0 | 0.00 | 0.00 | 0.00 | 85 | 1011.1 |
| 20260510124035 | 70 | 117 | 3.0 | 8.0 | 0.00 | 0.00 | 0.00 | 84 | 1011.1 |
| 20260510123535 | 70 | 111 | 3.0 | 7.0 | 0.00 | 0.00 | 0.00 | 84 | 1011.1 |
| 20260510123045 | 70 | 115 | 3.0 | 7.0 | 0.00 | 0.00 | 0.00 | 84 | 1011.0 |
| 20260510122538 | 70 | 88 | 4.0 | 7.0 | 0.00 | 0.00 | 0.00 | 84 | 1011.1 |
| 20260510122034 | 70 | 100 | 3.0 | 6.0 | 0.00 | 0.00 | 0.00 | 83 | 1011.1 |
| 20260510121549 | 70 | 115 | 1.0 | 6.0 | 0.00 | 0.00 | 0.00 | 83 | 1011.0 |
| 20260510121034 | 70 | 63 | 3.0 | 6.0 | 0.00 | 0.00 | 0.00 | 83 | 1011.0 |
| 20260510120537 | 70 | 117 | 3.0 | 6.0 | 0.00 | 0.00 | 0.00 | 83 | 1010.9 |
| 20260510120047 | 70 | 101 | 3.0 | 6.0 | 0.00 | 0.00 | 0.00 | 83 | 1010.8 |
| 20260510115535 | 70 | 117 | 2.0 | 6.0 | 0.00 | 0.00 | 0.00 | 83 | 1010.8 |
| 20260510115035 | 70 | 117 | 2.0 | 7.0 | 0.00 | 0.00 | 0.00 | 82 | 1010.7 |
| 20260510114547 | 71 | 103 | 3.0 | 7.0 | 0.00 | 0.00 | 0.00 | 82 | 1010.7 |
| 20260510114035 | 71 | 105 | 3.0 | 7.0 | 0.00 | 0.00 | 0.00 | 81 | 1010.8 |
| 20260510113535 | 71 | 96 | 3.0 | 8.0 | 0.00 | 0.00 | 0.00 | 81 | 1010.8 |
| 20260510113049 | 71 | 92 | 3.0 | 8.0 | 0.00 | 0.00 | 0.00 | 80 | 1010.8 |
| 20260510112534 | 71 | 86 | 3.0 | 6.0 | 0.00 | 0.00 | 0.00 | 80 | 1010.9 |
| 20260510112038 | 71 | 92 | 1.0 | 4.0 | 0.00 | 0.00 | 0.00 | 79 | 1010.7 |
| 20260510111558 | 72 | 92 | 2.0 | 6.0 | 0.00 | 0.00 | 0.00 | 79 | 1010.7 |
| 20260510111034 | 72 | 92 | 2.0 | 6.0 | 0.00 | 0.00 | 0.00 | 78 | 1010.6 |
| 20260510110534 | 72 | 105 | 2.0 | 7.0 | 0.00 | 0.00 | 0.00 | 78 | 1010.6 |
| 20260510110047 | 72 | 94 | 3.0 | 7.0 | 0.00 | 0.00 | 0.00 | 78 | 1010.5 |
| 20260510105534 | 72 | 98 | 3.0 | 7.0 | 0.00 | 0.00 | 0.00 | 78 | 1010.5 |
| 20260510105036 | 72 | 136 | 3.0 | 7.0 | 0.00 | 0.00 | 0.00 | 78 | 1010.4 |
| 20260510104605 | 72 | 153 | 3.0 | 7.0 | 0.00 | 0.00 | 0.00 | 77 | 1010.3 |
| 20260510104037 | 72 | 121 | 3.0 | 8.0 | 0.00 | 0.00 | 0.00 | 77 | 1010.3 |
| 20260510103534 | 73 | 136 | 3.0 | 8.0 | 0.00 | 0.00 | 0.00 | 77 | 1010.3 |
| 20260510103052 | 73 | 113 | 4.0 | 8.0 | 0.00 | 0.00 | 0.00 | 77 | 1010.3 |
| 20260510102533 | 73 | 121 | 3.0 | 8.0 | 0.00 | 0.00 | 0.00 | 76 | 1010.2 |
| 20260510102034 | 73 | 150 | 3.0 | 8.0 | 0.00 | 0.00 | 0.00 | 75 | 1010.3 |
| 20260510101549 | 73 | 133 | 3.0 | 8.0 | 0.00 | 0.00 | 0.00 | 75 | 1010.3 |
| 20260510101033 | 73 | 135 | 3.0 | 7.0 | 0.00 | 0.00 | 0.00 | 75 | 1010.2 |
| 20260510100539 | 73 | 130 | 3.0 | 9.0 | 0.00 | 0.00 | 0.00 | 74 | 1010.2 |
| 20260510100046 | 73 | 107 | 2.0 | 10.0 | 0.00 | 0.00 | 0.00 | 74 | 1010.2 |
| 20260510095535 | 73 | 115 | 5.0 | 10.0 | 0.00 | 0.00 | 0.00 | 74 | 1010.1 |
| 20260510095035 | 74 | 144 | 5.0 | 11.0 | 0.00 | 0.00 | 0.00 | 73 | 1010.0 |
| 20260510094546 | 74 | 144 | 5.0 | 11.0 | 0.00 | 0.00 | 0.00 | 73 | 1010.0 |
| 20260510094034 | 74 | 153 | 4.0 | 11.0 | 0.00 | 0.00 | 0.00 | 73 | 1010.0 |
| 20260510093533 | 74 | 123 | 6.0 | 11.0 | 0.00 | 0.00 | 0.00 | 73 | 1010.1 |
| 20260510093045 | 74 | 135 | 5.0 | 11.0 | 0.00 | 0.00 | 0.00 | 73 | 1009.9 |
| 20260510092535 | 74 | 126 | 5.0 | 10.0 | 0.00 | 0.00 | 0.00 | 73 | 1009.8 |
| 20260510092039 | 74 | 102 | 5.0 | 10.0 | 0.00 | 0.00 | 0.00 | 73 | 1009.8 |
| 20260510091543 | 74 | 132 | 5.0 | 9.0 | 0.00 | 0.00 | 0.00 | 73 | 1009.8 |
| 20260510091034 | 74 | 146 | 5.0 | 9.0 | 0.00 | 0.00 | 0.00 | 73 | 1009.7 |
| 20260510090533 | 74 | 159 | 5.0 | 10.0 | 0.00 | 0.00 | 0.00 | 72 | 1009.6 |
| 20260510090048 | 74 | 113 | 5.0 | 10.0 | 0.00 | 0.00 | 0.00 | 72 | 1009.6 |
| 20260510085538 | 74 | 157 | 3.0 | 9.0 | 0.00 | 0.00 | 0.00 | 72 | 1009.7 |
| 20260510085034 | 74 | 159 | 4.0 | 9.0 | 0.00 | 0.00 | 0.00 | 72 | 1009.7 |
| 20260510084550 | 74 | 99 | 4.0 | 10.0 | 0.00 | 0.00 | 0.00 | 71 | 1009.7 |
| 20260510084034 | 74 | 123 | 5.0 | 10.0 | 0.00 | 0.00 | 0.00 | 71 | 1009.7 |
| 20260510083534 | 75 | 122 | 4.0 | 9.0 | 0.00 | 0.00 | 0.00 | 70 | 1009.7 |
| 20260510083046 | 75 | 123 | 4.0 | 10.0 | 0.00 | 0.00 | 0.00 | 70 | 1009.6 |
| 20260510082534 | 75 | 138 | 5.0 | 10.0 | 0.00 | 0.00 | 0.00 | 70 | 1009.6 |
| 20260510082035 | 75 | 145 | 5.0 | 9.0 | 0.00 | 0.00 | 0.00 | 70 | 1009.7 |
| 20260510081557 | 75 | 131 | 4.0 | 9.0 | 0.00 | 0.00 | 0.00 | 70 | 1009.7 |
| 20260510081035 | 75 | 148 | 4.0 | 8.0 | 0.00 | 0.00 | 0.00 | 70 | 1009.8 |
| 20260510080534 | 75 | 98 | 4.0 | 8.0 | 0.00 | 0.00 | 0.00 | 69 | 1009.7 |
| 20260510080047 | 75 | 127 | 4.0 | 7.0 | 0.00 | 0.00 | 0.00 | 69 | 1009.8 |
| 20260510075534 | 75 | 123 | 3.0 | 9.0 | 0.00 | 0.00 | 0.00 | 69 | 1009.8 |
| 20260510075036 | 75 | 124 | 4.0 | 9.0 | 0.00 | 0.00 | 0.00 | 69 | 1009.8 |
| 20260510074554 | 75 | 122 | 3.0 | 7.0 | 0.00 | 0.00 | 0.00 | 68 | 1009.8 |
| 20260510074035 | 75 | 128 | 2.0 | 7.0 | 0.00 | 0.00 | 0.00 | 68 | 1009.8 |
| 20260510073535 | 76 | 126 | 3.0 | 8.0 | 0.00 | 0.00 | 0.00 | 67 | 1009.9 |
| 20260510073052 | 76 | 126 | 4.0 | 9.0 | 0.00 | 0.00 | 0.00 | 67 | 1009.9 |
| 20260510072533 | 76 | 140 | 3.0 | 9.0 | 0.00 | 0.00 | 0.00 | 67 | 1009.9 |
| 20260510072035 | 76 | 142 | 4.0 | 8.0 | 0.00 | 0.00 | 0.00 | 67 | 1009.9 |
| 20260510071549 | 76 | 138 | 4.0 | 8.0 | 0.00 | 0.00 | 0.00 | 66 | 1009.9 |
| 20260510071037 | 76 | 138 | 4.0 | 7.0 | 0.00 | 0.00 | 0.00 | 66 | 1009.9 |
| 20260510070535 | 76 | 130 | 4.0 | 7.0 | 0.00 | 0.00 | 0.00 | 65 | 1009.9 |
| 20260510070048 | 77 | 139 | 3.0 | 8.0 | 0.00 | 0.00 | 0.00 | 65 | 1009.9 |
| 20260510065535 | 77 | 147 | 3.0 | 8.0 | 0.00 | 0.00 | 0.00 | 64 | 1009.9 |
| 20260510065035 | 77 | 128 | 4.0 | 8.0 | 0.00 | 0.00 | 0.00 | 64 | 1010.0 |
| 20260510064546 | 77 | 143 | 4.0 | 8.0 | 0.00 | 0.00 | 0.00 | 64 | 1010.0 |
| 20260510064038 | 77 | 161 | 4.0 | 10.0 | 0.00 | 0.00 | 0.00 | 64 | 1009.9 |
| 20260510063536 | 78 | 130 | 5.0 | 10.0 | 0.00 | 0.00 | 0.00 | 63 | 1009.9 |
| 20260510063051 | 78 | 142 | 5.0 | 10.0 | 0.00 | 0.00 | 0.00 | 63 | 1010.0 |
| 20260510062537 | 78 | 147 | 6.0 | 10.0 | 0.00 | 0.00 | 0.00 | 63 | 1009.9 |
| 20260510062037 | 78 | 121 | 3.0 | 10.0 | 0.00 | 0.00 | 0.00 | 63 | 1009.9 |
| 20260510061545 | 78 | 133 | 4.0 | 10.0 | 0.00 | 0.00 | 0.00 | 63 | 1009.9 |
| 20260510061042 | 78 | 112 | 5.0 | 10.0 | 0.00 | 0.00 | 0.00 | 64 | 1009.9 |
| 20260510060539 | 78 | 124 | 5.0 | 9.0 | 0.00 | 0.00 | 0.00 | 64 | 1009.9 |
| 20260510060054 | 78 | 138 | 4.0 | 9.0 | 0.00 | 0.00 | 0.00 | 64 | 1009.9 |
| 20260510055537 | 78 | 115 | 4.0 | 8.0 | 0.00 | 0.00 | 0.00 | 64 | 1009.9 |
| 20260510055037 | 78 | 111 | 4.0 | 8.0 | 0.00 | 0.00 | 0.00 | 64 | 1009.9 |
| 20260510054549 | 78 | 144 | 4.0 | 9.0 | 0.00 | 0.00 | 0.00 | 64 | 1009.9 |
| 20260510054036 | 78 | 129 | 4.0 | 9.0 | 0.00 | 0.00 | 0.00 | 64 | 1009.8 |
| 20260510053539 | 78 | 111 | 5.0 | 9.0 | 0.00 | 0.00 | 0.00 | 64 | 1009.8 |
| 20260510053045 | 79 | 118 | 3.0 | 7.0 | 0.00 | 0.00 | 0.00 | 63 | 1009.7 |
| 20260510052535 | 79 | 126 | 3.0 | 7.0 | 0.00 | 0.00 | 0.00 | 63 | 1009.8 |
| 20260510052035 | 79 | 129 | 3.0 | 6.0 | 0.00 | 0.00 | 0.00 | 62 | 1009.8 |
| 20260510051613 | 79 | 116 | 2.0 | 4.0 | 0.00 | 0.00 | 0.00 | 62 | 1009.9 |
| 20260510051040 | 80 | 116 | 3.0 | 5.0 | 0.00 | 0.00 | 0.00 | 61 | 1009.9 |
| 20260510050536 | 80 | 110 | 2.0 | 7.0 | 0.00 | 0.00 | 0.00 | 61 | 1009.8 |
| 20260510050048 | 80 | 105 | 3.0 | 7.0 | 0.00 | 0.00 | 0.00 | 60 | 1009.8 |
| 20260510045535 | 80 | 108 | 3.0 | 8.0 | 0.00 | 0.00 | 0.00 | 60 | 1009.8 |
| 20260510045035 | 80 | 105 | 4.0 | 8.0 | 0.00 | 0.00 | 0.00 | 60 | 1009.9 |
| 20260510044555 | 81 | 111 | 3.0 | 9.0 | 0.00 | 0.00 | 0.00 | 59 | 1009.8 |
| 20260510044039 | 81 | 111 | 5.0 | 9.0 | 0.00 | 0.00 | 0.00 | 59 | 1009.8 |
| 20260510043534 | 81 | 117 | 5.0 | 9.0 | 0.00 | 0.00 | 0.00 | 59 | 1009.8 |
| 20260510043127 | 80 | 113 | 5.0 | 10.0 | 0.00 | 0.00 | 0.00 | 60 | 1009.7 |
| 20260510042534 | 80 | 132 | 4.0 | 10.0 | 0.00 | 0.00 | 0.00 | 61 | 1009.7 |
| 20260510042037 | 79 | 133 | 4.0 | 9.0 | 0.00 | 0.00 | 0.00 | 63 | 1009.7 |
| 20260510041551 | 79 | 105 | 6.0 | 10.0 | 0.00 | 0.00 | 0.00 | 65 | 1009.7 |
| 20260510041034 | 78 | 113 | 4.0 | 10.0 | 0.00 | 0.00 | 0.00 | 67 | 1009.6 |
| 20260510040537 | 78 | 111 | 3.0 | 7.0 | 0.00 | 0.00 | 0.00 | 70 | 1009.6 |
| 20260510040134 | 78 | 96 | 2.0 | 5.0 | 0.00 | 0.00 | 0.00 | 72 | 1009.5 |
| 20260510035534 | 78 | 80 | 2.0 | 5.0 | 0.00 | 0.00 | 0.00 | 72 | 1009.5 |
| 20260510035041 | 78 | 86 | 3.0 | 5.0 | 0.00 | 0.00 | 0.00 | 72 | 1009.5 |
| 20260510034553 | 79 | 102 | 1.0 | 3.0 | 0.00 | 0.00 | 0.00 | 71 | 1009.4 |
| 20260510034035 | 79 | 102 | 1.0 | 3.0 | 0.00 | 0.00 | 0.00 | 71 | 1009.3 |
| 20260510033541 | 79 | 102 | 1.0 | 3.0 | 0.00 | 0.00 | 0.00 | 71 | 1009.2 |
| 20260510033050 | 79 | 102 | 1.0 | 3.0 | 0.00 | 0.00 | 0.00 | 70 | 1009.1 |
| 20260510032535 | 79 | 102 | 2.0 | 3.0 | 0.00 | 0.00 | 0.00 | 70 | 1009.0 |
| 20260510032035 | 80 | 102 | 1.0 | 4.0 | 0.00 | 0.00 | 0.00 | 69 | 1009.0 |
| 20260510031613 | 80 | 102 | 1.0 | 4.0 | 0.00 | 0.00 | 0.00 | 69 | 1008.8 |
| 20260510031034 | 80 | 102 | 1.0 | 3.0 | 0.00 | 0.00 | 0.00 | 68 | 1008.8 |
| 20260510030537 | 80 | 76 | 2.0 | 3.0 | 0.00 | 0.00 | 0.00 | 67 | 1008.7 |
| 20260510030051 | 81 | 76 | 1.0 | 3.0 | 0.00 | 0.00 | 0.00 | 66 | 1008.6 |
| 20260510025536 | 81 | 76 | 2.0 | 3.0 | 0.00 | 0.00 | 0.00 | 65 | 1008.6 |
| 20260510025036 | 82 | 76 | 1.0 | 3.0 | 0.00 | 0.00 | 0.00 | 65 | 1008.5 |
| 20260510024550 | 82 | 76 | 1.0 | 4.0 | 0.00 | 0.00 | 0.00 | 64 | 1008.4 |
| 20260510024036 | 82 | 76 | 2.0 | 4.0 | 0.00 | 0.00 | 0.00 | 63 | 1008.5 |
| 20260510023536 | 83 | 72 | 1.0 | 3.0 | 0.00 | 0.00 | 0.00 | 62 | 1008.4 |
| 20260510023053 | 83 | 84 | 0.0 | 2.0 | 0.00 | 0.00 | 0.00 | 60 | 1008.4 |
| 20260510022537 | 84 | 84 | 0.0 | 2.0 | 0.00 | 0.00 | 0.00 | 60 | 1008.3 |
| 20260510022037 | 84 | 84 | 1.0 | 2.0 | 0.00 | 0.00 | 0.00 | 59 | 1008.2 |
| 20260510021549 | 84 | 84 | 1.0 | 2.0 | 0.00 | 0.00 | 0.00 | 58 | 1008.1 |
| 20260510021035 | 85 | 84 | 1.0 | 2.0 | 0.00 | 0.00 | 0.00 | 57 | 1008.0 |
| 20260510020538 | 85 | 84 | 1.0 | 2.0 | 0.00 | 0.00 | 0.00 | 56 | 1008.0 |
| 20260510020051 | 86 | 84 | 1.0 | 2.0 | 0.00 | 0.00 | 0.00 | 55 | 1008.0 |
| 20260510015535 | 86 | 84 | 1.0 | 2.0 | 0.00 | 0.00 | 0.00 | 54 | 1007.9 |
| 20260510015036 | 86 | 84 | 0.0 | 2.0 | 0.00 | 0.00 | 0.00 | 53 | 1007.8 |
| 20260510014553 | 87 | 0 | 0.0 | 2.0 | 0.00 | 0.00 | 0.00 | 52 | 1007.7 |
| 20260510014037 | 87 | 0 | 0.0 | 2.0 | 0.00 | 0.00 | 0.00 | 52 | 1007.6 |
| 20260510013538 | 87 | 84 | 1.0 | 4.0 | 0.00 | 0.00 | 0.00 | 51 | 1007.5 |
| 20260510013052 | 88 | 84 | 2.0 | 4.0 | 0.00 | 0.00 | 0.00 | 50 | 1007.5 |
| 20260510012534 | 88 | 109 | 2.0 | 4.0 | 0.00 | 0.00 | 0.00 | 48 | 1007.4 |
| 20260510012034 | 88 | 162 | 1.0 | 4.0 | 0.00 | 0.00 | 0.00 | 47 | 1007.3 |
| 20260510011606 | 88 | 162 | 1.0 | 4.0 | 0.00 | 0.00 | 0.00 | 46 | 1007.3 |
| 20260510011036 | 89 | 161 | 2.0 | 4.0 | 0.00 | 0.00 | 0.00 | 45 | 1007.1 |
| 20260510010536 | 89 | 161 | 1.0 | 5.0 | 0.00 | 0.00 | 0.00 | 45 | 1007.2 |
| 20260510005537 | 89 | 162 | 3.0 | 5.0 | 0.00 | 0.00 | 0.00 | 45 | 1007.2 |
| 20260510005035 | 89 | 171 | 2.0 | 4.0 | 0.00 | 0.00 | 0.00 | 44 | 1007.1 |
| 20260510004559 | 89 | 177 | 2.0 | 4.0 | 0.00 | 0.00 | 0.00 | 44 | 1007.2 |
| 20260510004041 | 90 | 172 | 1.0 | 5.0 | 0.00 | 0.00 | 0.00 | 44 | 1007.1 |
| 20260510003537 | 90 | 209 | 2.0 | 6.0 | 0.00 | 0.00 | 0.00 | 44 | 1007.1 |
| 20260510003045 | 90 | 198 | 2.0 | 6.0 | 0.00 | 0.00 | 0.00 | 44 | 1007.1 |
| 20260510002535 | 90 | 159 | 2.0 | 7.0 | 0.00 | 0.00 | 0.00 | 44 | 1007.1 |
| 20260510002036 | 90 | 195 | 1.0 | 8.0 | 0.00 | 0.00 | 0.00 | 45 | 1007.1 |
| 20260510001552 | 90 | 181 | 4.0 | 8.0 | 0.00 | 0.00 | 0.00 | 44 | 1007.1 |
| 20260510001035 | 90 | 148 | 3.0 | 6.0 | 0.00 | 0.00 | 0.00 | 44 | 1007.1 |
| 20260510000537 | 91 | 173 | 2.0 | 5.0 | 0.00 | 0.00 | 0.00 | 44 | 1007.0 |
| 20260510000049 | 91 | 126 | 1.0 | 5.0 | 0.00 | 0.00 | 0.00 | 43 | 1007.1 |
| 20260509235536 | 91 | 127 | 2.0 | 5.0 | 0.00 | 0.00 | 0.00 | 44 | 1007.1 |
| 20260509235037 | 91 | 155 | 2.0 | 7.0 | 0.00 | 0.00 | 0.00 | 44 | 1007.2 |
| 20260509234546 | 91 | 187 | 2.0 | 7.0 | 0.00 | 0.00 | 0.00 | 44 | 1007.1 |
| 20260509234036 | 91 | 154 | 3.0 | 12.0 | 0.00 | 0.00 | 0.00 | 44 | 1007.0 |
| 20260509233536 | 91 | 103 | 3.0 | 12.0 | 0.00 | 0.00 | 0.00 | 43 | 1007.1 |
| 20260509233050 | 91 | 175 | 3.0 | 7.0 | 0.00 | 0.00 | 0.00 | 44 | 1007.0 |
| 20260509232537 | 92 | 207 | 2.0 | 4.0 | 0.00 | 0.00 | 0.00 | 45 | 1007.0 |
| 20260509232034 | 91 | 220 | 1.0 | 5.0 | 0.00 | 0.00 | 0.00 | 43 | 1007.1 |
| 20260509231550 | 91 | 149 | 0.0 | 7.0 | 0.00 | 0.00 | 0.00 | 43 | 1007.1 |
| 20260509231036 | 91 | 149 | 2.0 | 7.0 | 0.00 | 0.00 | 0.00 | 44 | 1007.1 |
| 20260509230537 | 91 | 144 | 2.0 | 7.0 | 0.00 | 0.00 | 0.00 | 43 | 1007.1 |
| 20260509230054 | 91 | 65 | 3.0 | 7.0 | 0.00 | 0.00 | 0.00 | 42 | 1007.1 |
| 20260509225537 | 92 | 115 | 3.0 | 6.0 | 0.00 | 0.00 | 0.00 | 43 | 1007.2 |
| 20260509225034 | 91 | 240 | 3.0 | 7.0 | 0.00 | 0.00 | 0.00 | 43 | 1007.2 |
| 20260509224551 | 92 | 152 | 2.0 | 7.0 | 0.00 | 0.00 | 0.00 | 42 | 1007.2 |
| 20260509224037 | 92 | 143 | 2.0 | 6.0 | 0.00 | 0.00 | 0.00 | 43 | 1007.2 |
| 20260509223537 | 92 | 174 | 1.0 | 7.0 | 0.00 | 0.00 | 0.00 | 44 | 1007.2 |
| 20260509223047 | 91 | 202 | 2.0 | 7.0 | 0.00 | 0.00 | 0.00 | 45 | 1007.3 |
| 20260509222539 | 91 | 111 | 2.0 | 6.0 | 0.00 | 0.00 | 0.00 | 46 | 1007.3 |
| 20260509222036 | 92 | 85 | 2.0 | 5.0 | 0.00 | 0.00 | 0.00 | 45 | 1007.4 |
| 20260509221549 | 92 | 45 | 0.0 | 8.0 | 0.00 | 0.00 | 0.00 | 45 | 1007.5 |
| 20260509221039 | 92 | 118 | 2.0 | 8.0 | 0.00 | 0.00 | 0.00 | 47 | 1007.5 |
| 20260509220540 | 92 | 90 | 1.0 | 9.0 | 0.00 | 0.00 | 0.00 | 46 | 1007.6 |
| 20260509220052 | 92 | 139 | 3.0 | 9.0 | 0.00 | 0.00 | 0.00 | 46 | 1007.7 |
| 20260509215537 | 92 | 205 | 2.0 | 9.0 | 0.00 | 0.00 | 0.00 | 46 | 1007.7 |
| 20260509215036 | 91 | 232 | 3.0 | 9.0 | 0.00 | 0.00 | 0.00 | 46 | 1007.7 |
| 20260509214547 | 91 | 157 | 2.0 | 8.0 | 0.00 | 0.00 | 0.00 | 47 | 1007.9 |
| 20260509214034 | 91 | 233 | 3.0 | 8.0 | 0.00 | 0.00 | 0.00 | 47 | 1007.9 |
| 20260509213537 | 91 | 222 | 3.0 | 8.0 | 0.00 | 0.00 | 0.00 | 46 | 1008.0 |
| 20260509213101 | 91 | 194 | 3.0 | 9.0 | 0.00 | 0.00 | 0.00 | 47 | 1008.0 |
| 20260509212534 | 91 | 163 | 4.0 | 9.0 | 0.00 | 0.00 | 0.00 | 46 | 1008.1 |
| 20260509212034 | 91 | 190 | 4.0 | 9.0 | 0.00 | 0.00 | 0.00 | 48 | 1008.1 |
| 20260509211609 | 91 | 162 | 4.0 | 9.0 | 0.00 | 0.00 | 0.00 | 47 | 1008.3 |
| 20260509211034 | 91 | 213 | 3.0 | 8.0 | 0.00 | 0.00 | 0.00 | 48 | 1008.3 |
| 20260509210535 | 91 | 199 | 1.0 | 10.0 | 0.00 | 0.00 | 0.00 | 47 | 1008.4 |
| 20260509210056 | 91 | 194 | 3.0 | 12.0 | 0.00 | 0.00 | 0.00 | 48 | 1008.4 |
| 20260509205534 | 91 | 199 | 5.0 | 12.0 | 0.00 | 0.00 | 0.00 | 48 | 1008.5 |
| 20260509205034 | 90 | 160 | 4.0 | 11.0 | 0.00 | 0.00 | 0.00 | 48 | 1008.6 |
| 20260509204559 | 90 | 207 | 2.0 | 7.0 | 0.00 | 0.00 | 0.00 | 49 | 1008.8 |
| 20260509204037 | 90 | 234 | 4.0 | 7.0 | 0.00 | 0.00 | 0.00 | 48 | 1008.8 |
| 20260509203536 | 90 | 247 | 3.0 | 8.0 | 0.00 | 0.00 | 0.00 | 49 | 1009.0 |
| 20260509203055 | 89 | 251 | 4.0 | 11.0 | 0.00 | 0.00 | 0.00 | 50 | 1009.1 |
| 20260509202539 | 89 | 167 | 5.0 | 11.0 | 0.00 | 0.00 | 0.00 | 50 | 1009.1 |
| 20260509202036 | 89 | 196 | 5.0 | 11.0 | 0.00 | 0.00 | 0.00 | 52 | 1009.2 |
| 20260509201547 | 89 | 179 | 3.0 | 9.0 | 0.00 | 0.00 | 0.00 | 52 | 1009.2 |
| 20260509201036 | 89 | 125 | 4.0 | 9.0 | 0.00 | 0.00 | 0.00 | 52 | 1009.3 |
| 20260509200536 | 89 | 0 | 3.0 | 9.0 | 0.00 | 0.00 | 0.00 | 51 | 1009.5 |
| 20260509200046 | 89 | 186 | 4.0 | 9.0 | 0.00 | 0.00 | 0.00 | 52 | 1009.5 |
| 20260509195536 | 89 | 192 | 2.0 | 8.0 | 0.00 | 0.00 | 0.00 | 52 | 1009.6 |
| 20260509195039 | 88 | 221 | 4.0 | 10.0 | 0.00 | 0.00 | 0.00 | 54 | 1009.7 |
| 20260509194547 | 88 | 134 | 4.0 | 10.0 | 0.00 | 0.00 | 0.00 | 52 | 1009.7 |
| 20260509194036 | 88 | 164 | 3.0 | 13.0 | 0.00 | 0.00 | 0.00 | 53 | 1009.9 |
| 20260509193539 | 88 | 173 | 6.0 | 13.0 | 0.00 | 0.00 | 0.00 | 54 | 1009.9 |
| 20260509193051 | 88 | 139 | 3.0 | 10.0 | 0.00 | 0.00 | 0.00 | 57 | 1009.8 |
| 20260509192539 | 87 | 104 | 2.0 | 10.0 | 0.00 | 0.00 | 0.00 | 58 | 1009.9 |
| 20260509192036 | 87 | 182 | 4.0 | 10.0 | 0.00 | 0.00 | 0.00 | 57 | 1010.0 |
| 20260509191547 | 87 | 160 | 5.0 | 11.0 | 0.00 | 0.00 | 0.00 | 58 | 1010.0 |
| 20260509191035 | 87 | 171 | 5.0 | 14.0 | 0.00 | 0.00 | 0.00 | 60 | 1010.1 |
| 20260509190536 | 87 | 188 | 4.0 | 14.0 | 0.00 | 0.00 | 0.00 | 60 | 1010.2 |
| 20260509190052 | 86 | 140 | 5.0 | 10.0 | 0.00 | 0.00 | 0.00 | 58 | 1010.3 |
| 20260509185535 | 86 | 123 | 5.0 | 12.0 | 0.00 | 0.00 | 0.00 | 61 | 1010.2 |
| 20260509185036 | 86 | 212 | 5.0 | 13.0 | 0.00 | 0.00 | 0.00 | 61 | 1010.4 |
| 20260509184548 | 86 | 176 | 6.0 | 13.0 | 0.00 | 0.00 | 0.00 | 62 | 1010.5 |
| 20260509184037 | 86 | 147 | 5.0 | 12.0 | 0.00 | 0.00 | 0.00 | 61 | 1010.6 |
| 20260509183536 | 85 | 196 | 3.0 | 12.0 | 0.00 | 0.00 | 0.00 | 63 | 1010.7 |
| 20260509183052 | 85 | 190 | 5.0 | 11.0 | 0.00 | 0.00 | 0.00 | 66 | 1010.8 |
| 20260509182536 | 85 | 182 | 6.0 | 11.0 | 0.00 | 0.00 | 0.00 | 64 | 1010.9 |
| 20260509182036 | 85 | 198 | 3.0 | 13.0 | 0.00 | 0.00 | 0.00 | 66 | 1011.0 |
| 20260509181604 | 85 | 208 | 4.0 | 13.0 | 0.00 | 0.00 | 0.00 | 67 | 1011.0 |
| 20260509181036 | 84 | 203 | 6.0 | 12.0 | 0.00 | 0.00 | 0.00 | 67 | 1011.0 |
| 20260509180537 | 85 | 193 | 5.0 | 12.0 | 0.00 | 0.00 | 0.00 | 66 | 1011.1 |
| 20260509180048 | 84 | 180 | 7.0 | 12.0 | 0.00 | 0.00 | 0.00 | 67 | 1011.1 |
| 20260509175536 | 84 | 152 | 7.0 | 13.0 | 0.00 | 0.00 | 0.00 | 69 | 1011.3 |
| 20260509175040 | 84 | 153 | 5.0 | 13.0 | 0.00 | 0.00 | 0.00 | 69 | 1011.3 |
| 20260509174552 | 84 | 191 | 5.0 | 10.0 | 0.00 | 0.00 | 0.00 | 72 | 1011.4 |
| 20260509174037 | 83 | 154 | 4.0 | 10.0 | 0.00 | 0.00 | 0.00 | 73 | 1011.4 |
| 20260509173535 | 82 | 173 | 5.0 | 10.0 | 0.00 | 0.00 | 0.00 | 72 | 1011.5 |
| 20260509173047 | 82 | 144 | 2.0 | 13.0 | 0.00 | 0.00 | 0.00 | 73 | 1011.6 |
| 20260509172535 | 82 | 173 | 4.0 | 13.0 | 0.00 | 0.00 | 0.00 | 74 | 1011.6 |
| 20260509172035 | 82 | 182 | 3.0 | 8.0 | 0.00 | 0.00 | 0.00 | 74 | 1011.6 |
| 20260509171606 | 81 | 263 | 4.0 | 8.0 | 0.00 | 0.00 | 0.00 | 75 | 1011.7 |
| 20260509171035 | 81 | 205 | 3.0 | 10.0 | 0.00 | 0.00 | 0.00 | 75 | 1011.7 |
| 20260509170536 | 81 | 200 | 5.0 | 10.0 | 0.00 | 0.00 | 0.00 | 77 | 1011.8 |
| 20260509170045 | 80 | 120 | 4.0 | 8.0 | 0.00 | 0.00 | 0.00 | 78 | 1011.7 |
| 20260509165534 | 79 | 171 | 2.0 | 7.0 | 0.00 | 0.00 | 0.00 | 81 | 1011.8 |
| 20260509165034 | 79 | 198 | 4.0 | 9.0 | 0.00 | 0.00 | 0.00 | 79 | 1011.9 |
| 20260509164547 | 79 | 175 | 3.0 | 10.0 | 0.00 | 0.00 | 0.00 | 78 | 1011.9 |
| 20260509164034 | 79 | 150 | 4.0 | 10.0 | 0.00 | 0.00 | 0.00 | 79 | 1011.9 |
| 20260509163537 | 79 | 115 | 4.0 | 9.0 | 0.00 | 0.00 | 0.00 | 79 | 1011.9 |
| 20260509163059 | 79 | 193 | 3.0 | 10.0 | 0.00 | 0.00 | 0.00 | 81 | 1011.9 |
| 20260509162538 | 79 | 217 | 6.0 | 10.0 | 0.00 | 0.00 | 0.00 | 80 | 1012.0 |
| 20260509162037 | 78 | 166 | 5.0 | 12.0 | 0.00 | 0.00 | 0.00 | 82 | 1012.0 |
| 20260509161542 | 78 | 209 | 5.0 | 12.0 | 0.00 | 0.00 | 0.00 | 83 | 1012.1 |
| 20260509161034 | 77 | 165 | 6.0 | 10.0 | 0.00 | 0.00 | 0.00 | 83 | 1012.1 |
| 20260509160534 | 76 | 151 | 5.0 | 10.0 | 0.00 | 0.00 | 0.00 | 84 | 1012.1 |
| 20260509160057 | 76 | 183 | 4.0 | 11.0 | 0.00 | 0.00 | 0.00 | 84 | 1012.2 |
| 20260509155537 | 76 | 177 | 4.0 | 11.0 | 0.00 | 0.00 | 0.00 | 83 | 1012.2 |
| 20260509155037 | 77 | 198 | 5.0 | 9.0 | 0.00 | 0.00 | 0.00 | 83 | 1012.2 |